Location: Góry Miechowskie
(50.3599°N, 20.1803°E)
Time: 01:32:56
(UTC+00:00)

Transit 2A Rocket - Pass Details

Date: 21 September 2024
Orbit: 582 x 908 km, 66.7° (Epoch: 10 October)

Event Time Altitude Azimuth Distance (km) Brightness Sun altitude
Exits shadow 23:34:48 21° 325° (NW) 1,941 7.3 -37.7°
Maximum altitude 23:35:48 22° 338° (NNW) 1,899 7.3 -37.6°
Drops below altitude 10° 23:40:19 10° 27° (NNE) 2,567 8.4 -37.4°
Sets 23:43:26 0° 43° (NE) 3,472 9.2 -37.2°
